User: anonymous   Login
Location: Unspecified
(0.0000°N, 0.0000°E)
Time: 15:52:12
(UTC+00:00)
Language:

Orizuru - Orbit

View from above orbital plane
View from above orbital plane
View from above satellite
View from above satellite

Ground track
Ground track

The orbit data is extracted from the following two-line orbital elements,

1 20479U 90013B   18203.57638934 -.00000024 +00000-0 +20233-4 0  9995
2 20479 099.0596 270.6068 0538991 194.3906 277.6605 12.83845334333135
Epoch (UTC): 22 July 2018 13:50:00
Eccentricity: 0.0538991
inclination: 99.0596°
perigee height: 911 km
apogee height: 1741 km
right ascension of ascending node: 270.6068°
argument of perigee: 194.3906°
revolutions per day: 12.83845334
mean anomaly at epoch: 277.6605°
orbit number at epoch: 33313

The dashed part of the orbit path shows where the satellite is in the earth's shadow,  

DLR